BURGAS current weather conditions

sailwx.info

Wind from 210 at 5 knots

Air temperature 18.0° C
Dewpoint 14.0° C

Last reported at 2015-Aug-28 05:30 UTC.
Time now 2015-Aug-28 07:35 UTC

Location: N 42°29' E 027°29'.
View on Google Maps.

See reports from other nearby stations

  
Tides and Currents Weather Stations Pressure Air Temp Water Temp Dewpoint Dewpoint Depression Visibility Wind Speed Wind Dir Waves Ship Positions
date/time (UTC)wind fromknots sea level pressurealtimeterstation pressurevisibilityair tempwater tempwave heightnotes
2015-Aug-28 06:30 240 4 21.0
2015-Aug-28 06:00 220 5 20.0
2015-Aug-28 05:30 210 5 18.0
2015-Aug-28 05:00 230 3 16.0
2015-Aug-28 04:30 240 4 5.415.0
2015-Aug-28 04:00 240 4 5.414.0
2015-Aug-28 03:30 250 6 14.0
2015-Aug-28 03:00 240 4 15.0
2015-Aug-28 02:30 230 6 15.0
2015-Aug-28 02:00 220 5 15.0
2015-Aug-28 01:30 220 5 15.0
2015-Aug-28 01:00 240 4 16.0
2015-Aug-28 00:30 240 4 16.0
2015-Aug-28 00:00 270 4 16.0
2015-Aug-27 23:30 260 4 17.0
2015-Aug-27 23:00 270 4 17.0
2015-Aug-27 22:30 270 4 17.0
2015-Aug-27 22:00 260 2 18.0
2015-Aug-27 21:30 18.0
2015-Aug-27 21:00 360 3 18.0
2015-Aug-27 20:30 020 5 18.0
2015-Aug-27 20:00 010 5 19.0
2015-Aug-27 19:30 020 4 19.0
2015-Aug-27 19:00 050 4 19.0
2015-Aug-27 18:30 050 5 19.0
2015-Aug-27 18:00 080 4 20.0
2015-Aug-27 17:30 080 3 21.0
2015-Aug-27 17:00 120 6 22.0
2015-Aug-27 16:30 120 7 24.0
2015-Aug-27 16:00 110 8 24.0
2015-Aug-27 15:30 110 9 25.0
2015-Aug-27 15:00 110 11 25.0
2015-Aug-27 14:30 120 12 25.0
2015-Aug-27 14:00 120 12 25.0
2015-Aug-27 13:30 110 13 25.0
2015-Aug-27 13:00 120 14 26.0
2015-Aug-27 12:30 120 14 26.0
2015-Aug-27 12:00 110 13 26.0
2015-Aug-27 11:30 110 13 26.0
2015-Aug-27 11:00 110 13 25.0
2015-Aug-27 10:30 120 13 25.0
2015-Aug-27 10:00 120 12 26.0
2015-Aug-27 09:30 120 11 25.0
2015-Aug-27 09:00 130 9 26.0
2015-Aug-27 08:30 140 8 25.0
2015-Aug-27 08:00 130 7 25.0
2015-Aug-27 07:30 120 4 25.0
2015-Aug-27 07:00 24.0
2015-Aug-27 06:30 22.0
2015-Aug-27 06:00 220 3 20.0
2015-Aug-27 05:30 19.0
2015-Aug-27 05:00 230 3 18.0
2015-Aug-27 04:30 18.0
2015-Aug-27 04:00 230 5 14.0
2015-Aug-27 03:30 16.0
2015-Aug-27 03:00 250 4 15.0
2015-Aug-27 02:30 230 4 15.0
2015-Aug-27 02:00 250 3 16.0
2015-Aug-27 01:30 270 4 15.0
2015-Aug-27 01:00 250 4 16.0
2015-Aug-27 00:30 250 4 16.0
2015-Aug-27 00:00 16.0
2015-Aug-26 23:30 030 4 16.0
2015-Aug-26 23:00 010 4 16.0
2015-Aug-26 22:30 350 2 17.0
2015-Aug-26 22:00 020 4 17.0
2015-Aug-26 21:30 360 4 17.0
2015-Aug-26 21:00 030 6 17.0
2015-Aug-26 20:30 030 6 17.0
2015-Aug-26 20:00 030 7 17.0
2015-Aug-26 19:30 010 6 18.0
2015-Aug-26 19:00 030 5 19.0
2015-Aug-26 18:30 010 5 19.0
2015-Aug-26 18:00 070 6 20.0
2015-Aug-26 17:30 070 7 21.0
2015-Aug-26 17:00 080 7 22.0
2015-Aug-26 16:30 080 8 23.0
2015-Aug-26 16:00 080 10 24.0
2015-Aug-26 15:30 080 13 25.0
2015-Aug-26 15:00 090 14 25.0
2015-Aug-26 14:30 090 14 26.0
2015-Aug-26 14:00 090 16 26.0
2015-Aug-26 13:30 100 15 26.0
2015-Aug-26 13:00 110 16 5.426.0
2015-Aug-26 12:30 110 16 5.426.0
2015-Aug-26 12:00 110 16 5.427.0
2015-Aug-26 11:30 110 16 5.427.0
2015-Aug-26 11:00 110 16 5.427.0
2015-Aug-26 10:30 110 16 5.427.0
2015-Aug-26 10:00 120 15 5.427.0
2015-Aug-26 09:30 120 14 5.427.0
2015-Aug-26 09:00 140 10 5.427.0
2015-Aug-26 08:30 150 8 5.427.0
2015-Aug-26 08:00 130 6 5.426.0
2015-Aug-26 07:30 140 5 5.426.0
2015-Aug-26 07:00 070 7 5.425.0